DW5164 Weather Reports


time (UTC)temp
C
wind
direction
speed
KPH
gust
KPH
rain 1hr
cm
rain 24hr
cm
rain mn
cm
humidity
%
barometer
mb
20260507164041 22 240 4.8 9.7 0.00 0.00 0.00 52 1011.1
20260507163041 22 235 3.2 9.7 0.00 0.00 0.00 52 1011.0
20260507162540 23 236 4.8 8.0 0.00 0.00 0.00 53 1011.1
20260507161540 23 271 6.4 11.3 0.00 0.00 0.00 51 1011.1
20260507161041 23 248 4.8 9.7 0.00 0.00 0.00 53 1011.1
20260507160547 22 266 8.0 12.9 0.00 0.00 0.00 53 1011.2
20260507160040 22 246 4.8 8.0 0.00 0.00 0.00 54 1011.2
20260507155541 22 318 1.6 11.3 0.00 0.00 0.00 55 1011.2
20260507154540 22 314 1.6 9.7 0.00 0.00 0.00 55 1011.1
20260507154041 22 311 3.2 11.3 0.00 0.00 0.00 54 1011.1
20260507153541 22 293 1.6 3.2 0.00 0.00 0.00 54 1011.2
20260507153040 22 298 4.8 4.8 0.00 0.00 0.00 54 1011.2
20260507152541 22 27 0.0 1.6 0.00 0.00 0.00 54 1011.2
20260507152042 22 278 1.6 4.8 0.00 0.00 0.00 53 1011.2
20260507151540 22 291 3.2 4.8 0.00 0.00 0.00 54 1011.2
20260507150040 22 282 6.4 14.5 0.00 0.00 0.00 54 1011.2
20260507145548 22 111 1.6 4.8 0.00 0.00 0.00 52 1011.2
20260507145040 23 216 3.2 11.3 0.00 0.00 0.00 51 1011.2
20260507144540 23 186 6.4 12.9 0.00 0.00 0.00 51 1011.2
20260507143541 22 350 3.2 4.8 0.00 0.00 0.00 54 1011.2
20260507142540 22 260 4.8 11.3 0.00 0.00 0.00 52 1011.3
20260507142041 22 290 3.2 4.8 0.00 0.00 0.00 52 1011.3
20260507141540 23 317 4.8 11.3 0.00 0.00 0.00 49 1011.3
20260507141040 23 306 8.0 12.9 0.00 0.00 0.00 50 1011.3
20260507140540 23 260 11.3 14.5 0.00 0.00 0.00 51 1011.3
20260507140042 23 341 4.8 11.3 0.00 0.00 0.00 52 1011.3
20260507135540 23 290 4.8 11.3 0.00 0.00 0.00 50 1011.4
20260507135042 23 291 14.5 20.9 0.00 0.00 0.00 49 1011.4
20260507133540 23 287 8.0 14.5 0.00 0.00 0.00 50 1011.4
20260507132540 23 301 8.0 19.3 0.00 0.00 0.00 49 1011.5
20260507132040 23 320 11.3 19.3 0.00 0.00 0.00 48 1011.5
20260507131540 23 275 8.0 19.3 0.00 0.00 0.00 51 1011.5
20260507131041 23 277 8.0 16.1 0.00 0.00 0.00 52 1011.6
20260507130542 22 287 11.3 19.3 0.00 0.00 0.00 53 1011.6
20260507125540 22 291 9.7 14.5 0.00 0.00 0.00 52 1011.6
20260507125041 23 294 9.7 16.1 0.00 0.00 0.00 54 1011.6
20260507124540 23 310 9.7 16.1 0.00 0.00 0.00 52 1011.6
20260507124040 22 270 4.8 11.3 0.00 0.00 0.00 54 1011.7
20260507123539 23 292 8.0 20.9 0.00 0.00 0.00 51 1011.7
20260507123043 22 301 11.3 19.3 0.00 0.00 0.00 52 1011.6
20260507122540 22 279 9.7 16.1 0.00 0.00 0.00 52 1011.6
20260507122039 22 275 9.7 16.1 0.00 0.00 0.00 53 1011.7
20260507121539 22 293 14.5 19.3 0.00 0.00 0.00 53 1011.8
20260507121040 22 316 8.0 19.3 0.00 0.00 0.00 53 1011.7
20260507120039 22 268 6.4 16.1 0.00 0.00 0.00 57 1011.8
20260507115540 22 296 9.7 19.3 0.00 0.00 0.00 56 1011.9
20260507115041 22 299 11.3 20.9 0.00 0.00 0.00 53 1011.9
20260507114539 22 268 3.2 19.3 0.00 0.00 0.00 56 1011.9
20260507114039 22 311 4.8 11.3 0.00 0.00 0.00 56 1012.0
20260507113543 21 288 8.0 12.9 0.00 0.00 0.00 56 1012.0
20260507113040 22 262 4.8 11.3 0.00 0.00 0.00 56 1012.1
20260507112539 22 291 4.8 9.7 0.00 0.00 0.00 59 1012.2
20260507111540 21 255 1.6 8.0 0.00 0.00 0.00 57 1012.3
20260507111043 21 229 4.8 16.1 0.00 0.00 0.00 60 1012.3
20260507110539 21 238 8.0 16.1 0.00 0.00 0.00 61 1012.3
20260507110039 21 323 4.8 14.5 0.00 0.00 0.00 58 1012.4
20260507105040 20 252 3.2 9.7 0.00 0.00 0.00 63 1012.5
20260507104040 21 222 8.0 16.1 0.00 0.00 0.00 60 1012.5
20260507103539 21 244 8.0 9.7 0.00 0.00 0.00 63 1012.6
20260507103041 21 266 4.8 8.0 0.00 0.00 0.00 62 1012.6
20260507102540 21 236 8.0 14.5 0.00 0.00 0.00 60 1012.6
20260507102040 21 244 8.0 14.5 0.00 0.00 0.00 60 1012.6
20260507101040 21 221 6.4 12.9 0.00 0.00 0.00 63 1012.7
20260507100539 20 238 4.8 8.0 0.00 0.00 0.00 65 1012.7
20260507100039 21 273 4.8 11.3 0.00 0.00 0.00 66 1012.8
20260507095540 20 226 3.2 11.3 0.00 0.00 0.00 66 1012.8
20260507094539 21 270 4.8 14.5 0.00 0.00 0.00 66 1012.8
20260507094047 20 298 8.0 14.5 0.00 0.00 0.00 68 1012.8
20260507093540 20 295 8.0 12.9 0.00 0.00 0.00 65 1012.7
20260507093039 20 224 8.0 14.5 0.00 0.00 0.00 68 1012.7
20260507092540 20 281 6.4 14.5 0.00 0.00 0.00 70 1012.6
20260507092039 20 295 9.7 14.5 0.00 0.00 0.00 70 1012.6
20260507091546 19 285 9.7 19.3 0.00 0.00 0.00 71 1012.6
20260507091040 19 267 8.0 11.3 0.00 0.00 0.00 72 1012.7
20260507090039 19 274 4.8 12.9 0.00 0.00 0.00 75 1012.7
20260507085540 19 231 11.3 19.3 0.00 0.00 0.00 73 1012.7
20260507085039 18 247 8.0 12.9 0.00 0.00 0.00 74 1012.7
20260507084539 18 249 8.0 14.5 0.00 0.00 0.00 74 1012.7
20260507084039 18 279 4.8 19.3 0.00 0.00 0.00 75 1012.7
20260507083539 18 254 11.3 14.5 0.00 0.00 0.00 75 1012.7
20260507083039 18 248 8.0 12.9 0.00 0.00 0.00 77 1012.6
20260507082539 17 268 8.0 11.3 0.00 0.00 0.00 76 1012.6
20260507082040 17 286 8.0 12.9 0.00 0.00 0.00 76 1012.6
20260507081539 17 235 6.4 14.5 0.00 0.00 0.00 77 1012.5
20260507081041 17 271 8.0 11.3 0.00 0.00 0.00 77 1012.5
20260507075546 17 256 6.4 11.3 0.00 0.00 0.00 81 1012.6
20260507075039 17 261 8.0 12.9 0.00 0.00 0.00 82 1012.6
20260507074539 16 262 8.0 11.3 0.00 0.00 0.00 82 1012.6
20260507074039 16 228 6.4 11.3 0.00 0.00 0.00 83 1012.5
20260507073540 16 264 9.7 12.9 0.00 0.00 0.00 84 1012.6
20260507073039 16 229 4.8 12.9 0.00 0.00 0.00 84 1012.6
20260507072544 16 242 8.0 12.9 0.00 0.00 0.00 84 1012.5
20260507071541 15 250 8.0 11.3 0.00 0.00 0.00 85 1012.4
20260507071040 15 265 8.0 14.5 0.00 0.00 0.00 85 1012.4
20260507070539 15 217 3.2 11.3 0.00 0.00 0.00 86 1012.3
20260507070044 15 248 4.8 8.0 0.00 0.00 0.00 86 1012.3
20260507065541 15 273 4.8 8.0 0.00 0.00 0.00 88 1012.3
20260507065039 14 196 3.2 8.0 0.00 0.00 0.00 88 1012.2
20260507064540 14 238 3.2 4.8 0.00 0.00 0.00 89 1012.2
20260507064039 13 247 3.2 4.8 0.00 0.03 0.00 89 1012.2
20260507063539 13 261 1.6 4.8 0.00 0.03 0.00 89 1012.1
20260507063040 13 232 4.8 8.0 0.00 0.03 0.00 88 1012.1
20260507062039 13 250 3.2 8.0 0.00 0.03 0.00 89 1012.1
20260507061039 13 228 4.8 4.8 0.00 0.05 0.00 89 1012.0
20260507060539 13 244 3.2 4.8 0.00 0.05 0.00 89 1011.9
20260507054538 12 279 4.8 4.8 0.00 0.05 0.00 89 1011.9
20260507053539 12 278 1.6 4.8 0.00 0.08 0.00 89 1011.8
20260507052039 11 311 3.2 4.8 0.00 0.13 0.00 89 1011.6
20260507051538 11 267 0.0 3.2 0.00 0.15 0.00 90 1011.5
20260507051040 11 265 1.6 4.8 0.00 0.15 0.00 90 1011.4
20260507050539 11 271 1.6 4.8 0.00 0.15 0.00 90 1011.4
20260507050038 11 276 1.6 3.2 0.00 0.18 0.00 91 1011.3
20260507045539 11 273 1.6 4.8 0.00 0.18 0.00 92 1011.2
20260507045038 10 245 0.0 0.0 0.00 0.20 0.00 92 1011.2
20260507044540 10 246 0.0 0.0 0.00 0.20 0.00 92 1011.1
20260507043538 10 258 0.0 0.0 0.00 0.20 0.00 92 1011.0
20260507043053 10 258 0.0 1.6 0.00 0.20 0.00 92 1011.0
20260507042538 10 259 0.0 1.6 0.00 0.20 0.00 92 1011.1
20260507042038 10 275 0.0 0.0 0.00 0.20 0.00 92 1011.1
20260507041540 10 273 0.0 0.0 0.00 0.23 0.00 92 1011.0
20260507041039 10 273 0.0 3.2 0.00 0.23 0.00 92 1011.0
20260507040539 10 263 3.2 4.8 0.00 0.28 0.00 94 1011.0
20260507040040 10 249 0.0 0.0 0.00 0.28 0.00 94 1011.0
20260507035542 10 254 1.6 3.2 0.00 0.28 0.00 95 1010.9
20260507035038 10 258 1.6 4.8 0.00 0.28 0.00 95 1010.9
20260507034538 10 228 1.6 4.8 0.00 0.28 0.00 95 1010.8
20260507034038 10 252 1.6 3.2 0.00 0.28 0.00 95 1010.8
20260507033538 10 232 1.6 1.6 0.00 0.28 0.00 96 1010.8
20260507033038 10 231 0.0 1.6 0.00 0.28 0.00 96 1010.7
20260507032538 10 237 1.6 4.8 0.00 0.28 0.00 96 1010.6
20260507032038 10 221 3.2 4.8 0.00 0.28 0.00 96 1010.6
20260507031538 10 84 0.0 0.0 0.00 0.28 0.00 96 1010.6
20260507031038 10 84 0.0 0.0 0.00 0.28 0.00 96 1010.6
20260507030539 10 84 0.0 0.0 0.00 0.28 0.00 96 1010.7
20260507030038 10 84 0.0 0.0 0.00 0.28 0.00 95 1010.7
20260507025538 10 84 0.0 0.0 0.00 0.28 0.00 96 1010.7
20260507025038 10 84 0.0 0.0 0.00 0.28 0.00 95 1010.6
20260507024538 10 84 0.0 3.2 0.00 0.28 0.00 96 1010.6
20260507024045 11 232 0.0 0.0 0.00 0.28 0.00 96 1010.6
20260507023540 11 232 0.0 0.0 0.00 0.28 0.00 96 1010.6
20260507023056 11 232 0.0 4.8 0.00 0.28 0.00 96 1010.6
20260507022545 11 173 0.0 3.2 0.00 0.28 0.00 96 1010.6
20260507022038 11 77 0.0 0.0 0.00 0.28 0.00 96 1010.6
20260507021539 11 77 0.0 0.0 0.00 0.28 0.00 96 1010.7
20260507021038 11 77 0.0 0.0 0.00 0.28 0.00 96 1010.7
20260507020539 11 77 0.0 0.0 0.00 0.28 0.00 96 1010.7
20260507020038 11 77 0.0 0.0 0.00 0.28 0.00 95 1010.7
20260507015543 11 77 0.0 0.0 0.00 0.28 0.00 95 1010.6
20260507015045 11 77 0.0 0.0 0.00 0.28 0.00 95 1010.6
20260507014537 11 77 0.0 1.6 0.00 0.28 0.00 95 1010.6
20260507014039 11 77 0.0 3.2 0.00 0.28 0.00 95 1010.6
20260507013538 11 77 3.2 4.8 0.00 0.28 0.00 95 1010.6
20260507013038 11 77 3.2 8.0 0.00 0.28 0.00 94 1010.5
20260507012538 11 87 3.2 8.0 0.00 0.28 0.00 94 1010.5
20260507011538 11 277 0.0 0.0 0.00 0.28 0.00 94 1010.5
20260507011038 11 277 0.0 0.0 0.00 0.28 0.00 94 1010.5
20260507005538 11 277 1.6 3.2 0.00 0.28 0.00 93 1010.4
20260507005038 12 17 0.0 0.0 0.00 0.28 0.00 94 1010.5
20260507004538 12 17 1.6 3.2 0.00 0.28 0.00 94 1010.4
20260507004040 12 5 0.0 0.0 0.00 0.28 0.00 94 1010.4
20260507003038 12 143 0.0 0.0 0.00 0.28 0.00 93 1010.3
20260507002538 12 143 0.0 0.0 0.00 0.28 0.00 93 1010.3
20260507002038 12 54 0.0 0.0 0.00 0.28 0.00 93 1010.3
20260507001556 12 54 1.6 3.2 0.00 0.28 0.00 93 1010.3
20260507001038 12 54 0.0 4.8 0.00 0.28 0.00 92 1010.3
20260507000538 12 72 1.6 4.8 0.00 0.28 0.00 91 1010.4
20260507000039 12 72 1.6 4.8 0.00 0.28 0.00 91 1010.4
20260506235537 12 88 3.2 8.0 0.00 0.28 0.00 90 1010.3
20260506235039 12 184 0.0 4.8 0.00 0.28 0.00 90 1010.3
20260506234538 13 210 0.0 3.2 0.00 0.28 0.00 90 1010.3
20260506234040 13 210 1.6 4.8 0.00 0.28 0.00 90 1010.2
20260506233038 13 271 1.6 4.8 0.00 0.28 0.00 90 1010.3
20260506232537 13 268 3.2 4.8 0.00 0.28 0.00 93 1010.3
20260506232037 13 325 0.0 1.6 0.00 0.28 0.00 95 1010.3
20260506231537 13 23 4.8 12.9 0.00 0.28 0.00 96 1010.3
20260506231038 13 131 1.6 8.0 0.00 0.28 0.00 96 1010.3
20260506230538 13 89 3.2 8.0 0.00 0.28 0.00 96 1010.3
20260506230038 13 117 1.6 4.8 0.00 0.28 0.00 96 1010.3
20260506225537 13 55 0.0 4.8 0.00 0.28 0.00 96 1010.2
20260506225038 13 34 1.6 4.8 0.00 0.28 0.00 96 1010.2
20260506224037 13 59 3.2 4.8 0.00 0.28 0.00 96 1010.2
20260506223037 13 95 1.6 4.8 0.00 0.28 0.00 96 1010.3
20260506222540 13 95 0.0 4.8 0.00 0.28 0.00 96 1010.3
20260506222044 13 95 1.6 8.0 0.00 0.28 0.00 96 1010.2
20260506221038 13 67 4.8 8.0 0.00 0.28 0.00 95 1010.2
20260506220037 13 101 3.2 4.8 0.00 0.28 0.28 94 1010.3
20260506215537 14 101 0.0 4.8 0.00 0.28 0.28 94 1010.3
20260506215038 14 121 3.2 4.8 0.00 0.28 0.28 94 1010.3
20260506214540 14 217 0.0 3.2 0.00 0.28 0.28 94 1010.1
20260506214054 15 214 0.0 1.6 0.00 0.28 0.28 94 1010.1
20260506213537 15 287 1.6 4.8 0.00 0.28 0.28 93 1010.2
20260506213037 15 285 0.0 3.2 0.00 0.28 0.28 94 1010.2
20260506212540 15 289 0.0 3.2 0.00 0.28 0.28 95 1010.1
20260506212038 14 190 3.2 4.8 0.00 0.28 0.28 96 1010.2
20260506211536 15 355 1.6 4.8 0.00 0.28 0.28 96 1010.2
20260506211037 15 67 3.2 4.8 0.00 0.28 0.28 96 1010.3
20260506210537 15 67 3.2 4.8 0.00 0.28 0.28 96 1010.2
20260506210037 15 67 1.6 3.2 0.00 0.28 0.28 96 1010.2
20260506205548 15 67 1.6 3.2 0.00 0.28 0.28 96 1010.2
20260506205037 15 68 4.8 4.8 0.00 0.28 0.28 96 1010.2
20260506204537 15 204 1.6 3.2 0.00 0.28 0.28 95 1010.1
20260506204040 15 204 0.0 1.6 0.00 0.28 0.28 95 1010.1
20260506203540 15 204 0.0 3.2 0.00 0.28 0.28 95 1010.0
20260506203042 15 204 3.2 4.8 0.00 0.28 0.28 95 1010.0
20260506202537 15 323 1.6 3.2 0.00 0.28 0.28 95 1009.9
20260506202037 15 323 1.6 4.8 0.00 0.28 0.28 94 1009.9
20260506201537 15 276 3.2 4.8 0.00 0.28 0.28 94 1009.9
20260506200037 16 355 3.2 4.8 0.00 0.28 0.28 94 1009.7
20260506195536 16 5 1.6 3.2 0.00 0.28 0.28 93 1009.7
20260506195038 16 79 4.8 11.3 0.00 0.28 0.28 93 1009.4
20260506193537 16 73 3.2 8.0 0.00 0.28 0.28 93 1009.3
20260506193037 16 80 4.8 8.0 0.00 0.28 0.28 93 1009.2
20260506190037 16 86 12.9 16.1 0.00 0.28 0.28 92 1008.6
20260506185539 16 91 14.5 19.3 0.00 0.28 0.28 92 1008.5
20260506185037 16 82 11.3 20.9 0.00 0.28 0.28 92 1008.5
20260506184537 17 109 6.4 8.0 0.00 0.28 0.28 92 1008.5
20260506184053 17 72 4.8 4.8 0.00 0.28 0.28 91 1008.4
20260506183537 17 90 4.8 8.0 0.00 0.28 0.28 91 1008.3
20260506183036 17 69 3.2 8.0 0.00 0.28 0.28 90 1008.2
20260506182537 17 74 1.6 9.7 0.00 0.28 0.28 90 1008.1
20260506182037 17 63 4.8 12.9 0.00 0.28 0.28 89 1007.9
20260506181540 17 90 4.8 12.9 0.00 0.28 0.28 89 1007.8
20260506181037 17 71 8.0 11.3 0.00 0.28 0.28 89 1007.7
20260506180536 17 95 4.8 12.9 0.00 0.28 0.28 89 1007.7
20260506180036 17 85 8.0 14.5 0.00 0.28 0.28 89 1007.6
20260506175537 17 86 12.9 20.9 0.00 0.28 0.28 89 1007.6
20260506175037 18 80 9.7 24.1 0.00 0.28 0.28 89 1007.6
20260506174538 18 65 11.3 19.3 0.00 0.28 0.28 88 1007.6
20260506174038 18 69 9.7 14.5 0.00 0.28 0.28 87 1007.5
20260506173536 18 91 9.7 19.3 0.00 0.28 0.28 86 1007.4
20260506173037 18 75 9.7 19.3 0.00 0.28 0.28 84 1007.4
20260506172537 18 86 8.0 14.5 0.00 0.28 0.28 82 1007.3
20260506172036 18 80 11.3 16.1 0.00 0.28 0.28 81 1007.3
20260506171536 18 76 8.0 19.3 0.00 0.28 0.28 81 1007.2
20260506171036 18 83 9.7 14.5 0.00 0.28 0.28 80 1007.1
20260506170541 18 81 14.5 20.9 0.00 0.28 0.28 80 1007.1
20260506170039 19 83 14.5 20.9 0.00 0.28 0.28 82 1007.1
20260506165038 19 69 9.7 19.3 0.00 0.28 0.28 85 1007.0